Wind_Speed
27 27 28 28 27 28 28 27 25 23 22 21 21 20 19 17 16 15 14 15 14 14 14 13 13 12 12 12 12 12 12 12 11 11 11 11 11 11 11 11 11 11 10 9 9 8 9 9 8 7 6 6 6 5 5 5 6 7 8 8 8 8 8 6 5 10 14 14 13 13 13 14 15 16 16 18 19 18 16 15 15 16 17 17 16
27 27 27 28 28 28 28 27 26 24 23 23 22 22 20 18 15 14 14 14 14 15 15 14 14 14 13 12 12 13 13 13 12 12 12 12 12 11 11 12 12 11 10 10 9 8 9 9 9 8 8 8 8 8 8 8 8 8 8 8 8 8 8 8 7 8 13 15 15 14 14 15 17 18 18 19 21 20 18 18 18 18 18 18 16
26 26 27 27 28 28 27 26 26 25 24 24 23 23 22 19 16 15 15 14 14 15 15 15 14 14 14 13 13 13 14 14 14 14 13 13 13 12 12 12 12 11 11 11 9 9 9 9 9 9 9 10 10 10 10 10 9 9 9 8 9 9 9 10 9 9 12 16 16 17 17 17 18 19 19 20 20 20 20 20 20 19 19 20 19
27 25 25 26 26 26 26 25 25 25 24 24 23 23 23 21 19 17 17 16 16 16 16 16 15 15 15 15 15 14 14 14 14 15 15 14 14 14 13 13 13 12 12 11 10 10 10 11 10 9 9 11 12 12 12 12 12 12 12 11 10 10 10 10 11 11 12 15 18 19 18 19 21 21 21 21 20 20 20 20 20 21 22 22 22
29 26 24 23 23 24 24 24 24 24 24 23 22 22 22 22 21 19 18 18 17 17 17 17 17 17 17 16 16 15 15 14 15 15 16 15 15 14 14 14 14 14 13 13 12 11 12 12 11 10 10 12 12 12 12 12 12 13 13 12 12 12 12 12 13 14 14 16 19 20 20 21 23 23 22 21 21 22 22 21 22 22 24 25 25
28 24 21 19 21 22 22 22 22 21 21 21 22 21 20 20 20 20 20 19 18 18 18 19 19 19 18 18 17 16 16 16 16 16 16 16 16 16 15 15 15 15 15 14 13 13 12 12 11 11 12 13 13 13 12 12 12 13 13 13 13 14 15 15 16 16 16 17 18 21 22 23 24 24 24 23 23 24 23 23 25 26 26 26 27
25 24 24 22 21 22 22 21 20 18 16 15 16 18 18 19 19 19 19 18 18 18 18 18 18 18 19 19 19 18 18 18 17 17 17 18 18 18 17 16 16 16 16 16 15 15 15 14 13 13 13 13 14 14 14 13 14 14 15 15 16 17 18 18 18 17 17 17 18 20 22 24 24 25 25 25 25 24 20 20 25 28 27 27 29
21 22 24 23 22 23 24 23 22 21 19 16 14 14 15 17 18 18 18 17 16 16 16 17 17 17 18 19 19 19 19 19 20 19 19 19 20 20 19 18 18 17 18 18 17 17 17 17 16 15 15 15 15 15 15 15 16 17 17 17 18 18 19 19 18 18 18 18 19 21 21 23 25 25 26 26 24 23 20 18 22 27 27 27 29
16 16 17 17 18 20 20 19 18 18 20 20 18 16 15 16 18 19 19 17 16 16 15 16 15 15 16 17 18 18 19 20 20 21 21 22 22 22 21 20 20 19 19 19 19 18 18 18 18 17 17 16 16 16 16 16 17 18 18 18 18 19 19 19 20 20 19 18 20 20 20 21 24 24 24 25 23 23 23 21 22 25 25 26 29
13 13 13 14 15 13 12 13 12 11 14 16 17 16 14 14 16 18 19 19 18 17 16 16 17 17 17 17 18 19 19 20 21 21 22 23 24 24 24 23 22 21 21 21 20 20 19 19 18 18 19 19 18 18 18 18 19 19 20 19 19 20 20 21 21 21 20 19 20 20 18 20 23 23 23 25 25 24 25 23 22 24 24 24 27
9 9 9 11 13 10 8 9 9 9 10 11 10 10 10 10 13 15 16 17 17 16 16 16 16 16 16 17 18 19 20 21 21 22 22 23 24 24 25 25 24 23 23 22 22 21 21 20 20 19 20 20 21 21 21 21 21 21 21 21 21 21 22 23 23 23 21 20 21 20 18 20 24 25 25 26 25 24 24 23 22 23 21 19 20
11 10 8 7 8 9 8 7 8 9 9 8 6 5 5 6 9 11 11 11 12 13 13 13 12 12 13 13 14 16 17 19 20 22 22 22 22 24 24 25 25 24 24 23 23 23 22 22 21 21 21 21 21 22 22 22 22 21 21 21 21 22 22 23 24 24 23 22 21 21 21 22 25 26 25 25 24 24 24 25 24 23 22 20 19
18 15 14 15 14 14 14 13 13 12 10 9 8 6 5 5 4 4 4 5 8 9 10 10 9 8 9 9 9 9 10 12 15 18 21 21 22 22 23 24 24 24 24 23 24 23 23 23 23 23 23 22 22 23 23 23 22 22 22 22 22 22 21 22 23 23 24 24 23 24 25 25 25 25 26 25 25 24 25 26 26 24 24 23 23
21 19 18 18 16 16 15 14 13 11 9 8 8 7 7 6 4 3 3 3 4 5 5 5 4 4 5 5 5 4 4 6 9 11 13 17 19 20 20 21 22 22 22 22 22 22 23 23 24 24 24 24 24 24 25 25 24 24 24 24 24 24 23 23 23 23 24 24 25 27 27 27 27 27 28 26 25 25 25 26 26 26 27 27 28
23 22 20 18 17 17 15 15 14 13 11 10 8 8 8 6 3 1 1 2 2 2 2 2 1 1 2 3 5 5 5 6 7 6 6 8 11 14 16 17 18 18 19 20 20 21 21 21 22 23 23 23 23 23 24 24 24 24 25 25 26 26 25 25 25 25 25 25 26 28 28 28 28 29 28 26 25 25 25 25 26 26 28 29 30
23 22 20 18 17 17 16 16 16 14 13 12 11 11 10 7 5 2 1 0 1 2 1 1 1 1 0 2 5 7 7 6 5 5 5 5 6 9 11 12 13 14 14 15 15 16 16 16 17 18 19 20 20 20 20 21 22 22 23 24 25 26 27 26 25 25 26 26 27 27 27 27 26 26 25 24 24 24 24 25 26 25 26 26 27
21 21 20 18 16 16 16 15 14 14 13 13 14 13 11 8 6 3 1 1 2 1 0 2 2 2 2 3 5 6 6 6 5 4 3 3 4 6 9 10 11 11 11 11 11 12 12 12 13 14 16 18 18 18 17 17 19 20 21 22 24 25 27 27 26 26 27 26 26 26 25 25 23 23 23 23 23 22 22 24 25 24 22 19 19
20 19 18 16 15 14 13 13 13 13 13 14 14 13 11 9 7 4 3 2 3 3 3 4 5 5 5 5 5 6 6 8 9 8 6 4 4 5 8 10 11 11 11 10 10 11 11 11 12 13 14 15 16 15 15 16 17 19 19 20 21 24 26 26 26 27 27 26 25 25 24 23 23 24 25 24 23 22 22 24 24 22 21 19 19
18 17 15 14 13 12 11 11 12 13 13 14 13 12 11 9 7 6 5 5 5 6 6 6 6 6 7 8 8 6 6 7 9 10 10 9 8 8 8 9 11 11 11 10 9 9 9 10 9 10 11 12 13 13 14 15 16 17 18 18 20 23 24 23 24 24 25 25 25 25 25 25 25 25 25 24 24 23 23 24 23 22 22 23 23
16 15 14 13 12 12 13 13 13 15 15 15 15 14 12 10 9 7 7 7 9 10 9 9 8 7 6 8 10 8 6 5 5 6 7 8 8 6 4 4 6 8 8 8 8 7 7 7 6 7 8 9 11 12 13 14 16 17 18 18 20 21 21 20 21 22 23 25 25 26 26 26 26 25 25 25 24 23 23 23 23 22 22 23 25
14 14 15 14 14 14 15 15 15 16 16 16 16 16 15 14 12 11 10 10 11 13 14 14 13 11 8 9 11 11 8 5 6 10 9 5 4 4 4 6 8 8 9 8 7 6 6 6 7 7 8 9 10 11 12 14 16 17 18 19 19 19 19 20 21 21 22 24 24 25 26 26 26 26 26 25 24 23 23 23 22 21 21 22 24
13 14 15 15 16 15 15 15 15 15 15 14 15 16 16 15 14 13 13 12 12 14 15 16 15 13 11 10 12 13 12 8 6 9 11 9 7 7 7 7 7 8 9 8 7 7 9 9 9 9 10 11 12 13 13 15 16 17 18 18 18 17 18 20 21 21 22 23 24 25 26 26 26 27 26 26 25 24 24 24 23 23 23 23 24
12 14 14 15 15 15 15 15 14 14 14 13 14 15 14 14 14 13 13 13 13 14 15 14 14 13 11 11 11 12 14 13 10 7 8 8 8 8 8 7 5 5 6 7 8 10 12 12 12 11 12 12 14 15 16 17 18 19 20 20 19 18 18 19 20 22 24 24 24 25 26 26 26 27 27 27 27 26 26 27 28 28 28 28 28
11 13 13 13 14 14 14 14 13 13 13 13 13 14 14 13 14 13 13 13 14 14 15 14 13 13 12 11 11 10 12 13 12 10 8 7 7 7 8 8 7 6 6 7 9 12 13 14 13 13 13 14 15 16 16 18 19 20 21 21 21 20 20 20 19 20 21 23 23 25 27 27 28 29 30 29 29 29 30 31 31 31 29 29 29
11 12 12 12 12 12 12 12 12 13 13 13 13 14 14 13 14 13 13 14 14 14 14 14 13 13 13 12 11 11 11 11 11 10 10 9 8 8 9 9 9 9 9 10 11 12 13 14 14 14 15 15 16 17 17 17 17 18 19 19 19 20 20 19 19 19 20 21 22 24 25 26 27 28 28 29 29 30 31 30 30 29 27 27 28
11 11 11 11 11 10 11 11 12 11 12 12 13 13 14 13 14 13 13 13 14 14 14 13 13 13 13 13 12 12 12 11 11 11 11 11 11 12 12 12 12 12 12 13 13 13 14 15 15 15 16 16 16 17 18 18 18 17 17 16 16 17 17 17 19 20 20 20 21 23 24 24 25 25 26 27 28 29 28 27 28 28 26 24 25
10 10 10 10 10 10 11 11 11 11 11 11 11 11 12 12 13 13 13 13 13 13 13 13 13 13 13 13 13 12 12 12 13 14 14 15 15 16 17 17 17 17 17 17 17 17 17 16 16 16 15 15 16 17 18 19 19 19 18 16 16 16 16 16 18 20 20 19 21 23 24 24 24 25 25 26 27 28 26 23 24 26 25 22 22
8 9 9 9 9 10 10 10 10 10 11 11 11 12 12 12 12 12 12 12 12 12 12 12 12 12 12 13 13 13 13 13 14 16 17 18 18 19 19 20 20 20 20 21 21 20 20 19 18 16 16 16 17 17 18 19 19 19 19 17 16 16 15 15 16 18 19 19 20 21 23 22 22 23 23 23 24 25 24 22 22 24 24 20 19
7 8 8 8 9 9 9 9 10 10 10 10 11 11 11 11 11 10 9 9 9 9 10 10 10 10 10 11 12 14 15 15 15 15 16 17 18 19 20 21 21 21 21 21 22 22 21 21 20 18 18 17 18 19 20 20 20 20 19 17 16 16 16 15 15 16 17 18 19 20 20 21 21 21 21 20 20 21 22 22 21 22 22 19 18
6 7 8 8 8 7 8 9 9 9 10 11 11 11 10 10 9 9 9 9 9 8 8 8 8 8 9 9 10 11 13 14 14 14 14 14 15 17 19 19 20 20 21 21 22 21 21 20 20 19 18 18 18 19 20 20 21 20 18 16 15 16 16 14 14 16 17 18 20 20 21 22 22 21 20 20 20 21 22 22 21 21 20 19 19
5 6 7 7 7 7 8 9 9 10 11 11 11 11 11 11 10 10 10 10 10 10 8 7 7 7 8 9 9 9 9 11 12 13 14 14 15 16 18 18 19 19 20 20 20 19 19 18 18 18 18 18 18 18 18 19 19 17 15 15 14 15 15 14 15 17 19 19 20 21 21 22 22 21 22 23 24 25 25 24 22 21 21 21 21
3 4 5 6 6 6 8 9 9 11 12 12 12 12 12 11 10 10 11 11 11 10 10 9 9 8 9 9 10 10 10 11 12 13 14 14 15 16 17 18 18 19 19 19 19 19 19 19 19 19 19 19 19 18 18 17 16 13 12 13 13 13 14 15 15 16 17 18 20 21 20 20 21 21 22 23 23 24 25 23 22 21 22 23 23
1 2 3 4 5 6 7 8 9 11 12 12 12 12 13 13 11 11 11 11 11 11 11 11 11 11 11 11 11 11 11 12 13 14 15 15 16 17 17 17 17 17 17 17 18 19 20 20 20 21 21 21 21 19 17 15 12 10 10 11 10 10 12 14 15 16 18 20 22 21 20 20 21 21 22 22 22 22 22 22 22 21 21 21 22
2 2 3 4 5 6 6 7 9 9 10 10 10 11 13 13 12 12 12 12 12 12 12 12 11 12 13 13 12 12 12 13 14 15 16 16 16 17 18 17 16 16 16 17 18 19 20 20 21 21 21 22 22 19 16 13 11 10 10 8 8 8 11 14 17 19 22 24 24 22 21 22 22 22 22 23 23 22 21 20 21 21 21 21 22
3 3 3 3 4 5 6 7 8 8 8 9 9 10 11 11 11 10 11 13 13 13 12 12 13 14 15 13 12 12 13 14 16 16 17 16 16 17 18 18 18 18 18 18 18 19 20 20 20 20 21 21 21 19 16 13 13 13 11 8 7 9 12 16 18 21 23 26 26 25 24 23 23 23 23 23 22 20 19 19 19 20 22 23 24
3 3 2 3 4 5 6 6 7 8 8 9 9 9 10 10 10 10 10 11 12 11 12 13 15 16 15 14 14 14 15 16 18 19 19 17 16 17 17 19 20 20 20 20 20 20 20 20 20 20 21 21 21 20 17 15 14 14 11 9 9 12 15 17 19 21 22 24 26 27 27 26 25 24 23 24 24 22 20 19 20 21 23 25 26
2 2 3 4 5 6 7 7 8 8 8 9 9 10 10 10 9 9 9 10 10 11 12 15 16 16 15 15 15 15 17 20 22 22 21 20 18 17 17 18 19 20 21 22 21 21 21 20 20 21 22 22 22 21 18 16 16 16 15 13 13 15 17 19 20 21 22 23 24 25 27 28 28 27 24 24 25 24 21 21 22 24 25 26 26
3 4 4 6 6 7 7 8 8 8 8 9 10 10 10 9 8 8 9 10 11 11 13 14 14 14 14 15 15 17 20 22 21 20 20 20 20 19 19 19 19 20 21 22 23 23 22 21 21 22 23 23 23 21 19 19 20 20 18 17 17 17 19 20 21 22 23 24 24 25 26 27 29 29 27 25 24 24 24 24 23 24 25 25 24
4 5 5 6 7 7 8 8 8 8 9 9 9 9 9 8 8 9 10 11 11 11 11 12 12 12 13 16 18 20 21 20 18 17 18 17 17 17 18 19 19 20 21 23 24 24 23 22 22 23 24 25 24 21 19 20 21 20 19 18 19 19 20 20 21 22 24 25 26 27 27 27 28 29 29 26 24 24 24 24 24 24 24 24 24
4 4 5 6 7 8 8 8 7 8 9 9 9 10 10 10 10 10 10 11 11 10 10 11 11 13 14 16 18 19 20 19 18 19 18 17 16 16 16 17 18 19 20 22 24 25 25 24 24 25 26 26 25 22 20 21 21 20 19 20 21 21 21 21 22 23 24 26 28 28 28 28 27 26 25 24 23 24 24 24 25 25 25 25 27
3 4 4 5 6 8 8 7 7 8 9 9 10 11 11 11 10 10 10 10 10 11 11 12 13 14 15 16 17 18 19 19 18 18 18 18 18 18 18 18 18 19 20 21 22 24 25 26 27 28 28 27 26 24 23 23 22 22 22 22 22 22 23 23 24 25 26 28 28 28 28 28 24 21 22 24 25 26 26 26 26 27 27 26 27
2 3 4 5 6 7 7 7 8 10 10 10 10 10 9 9 10 11 11 12 13 14 14 14 14 14 15 15 16 18 18 17 16 16 17 17 18 19 20 20 20 20 21 21 22 24 25 27 28 30 30 28 27 26 25 25 24 23 23 23 23 24 24 25 25 27 28 29 28 27 25 24 22 21 22 24 24 26 27 26 27 27 27 27 26
2 3 5 6 8 9 10 10 10 10 9 9 8 9 10 11 12 13 13 14 14 14 14 14 14 15 15 15 16 17 16 15 15 16 17 17 17 18 19 20 21 23 24 25 25 26 27 27 28 29 29 28 27 27 26 26 25 24 24 24 24 24 24 26 27 28 28 28 28 26 25 23 22 22 23 23 23 24 25 25 25 26 26 26 26
4 5 7 8 10 11 11 10 8 8 8 8 9 10 11 12 12 12 13 13 13 13 13 14 15 15 15 16 17 17 16 15 15 16 18 18 18 18 19 20 21 22 24 25 26 28 29 28 28 28 28 27 27 27 26 25 25 24 24 24 23 23 25 27 28 28 26 25 26 26 25 24 22 22 23 23 23 23 24 24 24 26 27 27 27
6 7 9 11 11 11 9 7 7 7 8 8 9 10 10 10 11 12 13 13 13 13 14 14 14 15 16 17 17 17 16 17 18 18 18 19 19 19 20 22 22 21 21 22 23 25 27 26 25 24 23 23 23 24 24 24 24 25 25 25 25 26 28 28 28 27 25 23 23 23 23 22 22 23 24 24 23 23 24 25 25 26 27 27 27
7 8 10 11 9 8 7 6 6 7 7 7 8 9 10 11 12 13 14 14 14 15 15 15 15 16 17 18 18 18 18 19 19 20 20 20 20 21 23 24 24 23 22 22 22 22 22 22 21 20 20 21 21 22 22 23 23 24 25 25 26 27 29 29 29 28 26 23 21 20 20 21 22 23 24 24 24 24 25 26 26 26 27 27 28
7 9 9 8 6 5 5 6 6 6 7 8 9 11 12 13 13 14 14 14 15 15 16 16 16 17 18 19 19 20 20 20 21 21 21 21 22 24 25 25 25 24 24 23 23 22 22 21 21 21 22 22 23 23 23 23 24 24 24 25 26 27 28 28 28 28 27 24 21 20 20 21 22 22 23 23 24 26 26 27 27 27 27 27 29
7 8 7 5 4 5 5 5 6 7 9 10 11 12 12 13 13 13 14 14 14 15 15 16 17 18 19 20 20 20 21 22 22 22 22 23 25 26 26 26 25 25 25 24 24 23 23 22 22 22 22 23 23 24 24 25 25 25 26 26 26 27 27 26 26 28 28 26 24 23 23 23 24 24 23 24 25 26 27 28 28 28 28 29 30
7 6 4 3 4 4 4 5 6 8 10 10 11 12 12 12 12 13 13 14 14 15 16 17 18 19 19 20 21 21 21 22 23 23 24 25 26 26 26 26 25 25 25 24 24 24 24 24 24 24 24 24 24 24 25 26 26 27 28 28 28 28 27 26 26 27 28 28 29 29 28 28 27 26 26 26 27 27 28 28 28 29 30 32 33
6 4 3 3 3 4 4 5 7 9 10 11 11 11 11 12 12 13 14 14 15 15 16 16 17 18 19 20 21 22 22 23 24 25 26 26 25 26 26 25 25 26 26 26 25 24 24 24 24 24 24 24 24 25 25 26 27 27 28 28 28 28 27 27 26 25 25 26 28 29 30 31 31 30 28 28 29 30 31 31 30 30 32 33 34
4 2 2 2 3 4 4 6 8 9 10 10 10 10 11 12 12 13 14 14 14 15 15 15 16 18 20 22 22 22 23 24 25 26 26 25 24 24 23 23 24 26 27 27 26 25 24 24 24 24 24 24 25 26 26 27 27 27 28 28 28 27 26 25 25 25 24 24 26 28 30 32 34 34 34 33 32 34 36 36 34 34 35 35 34
Wind_Direction
216 217 219 221 223 224 225 227 228 229 231 234 237 239 241 242 245 249 252 253 252 252 253 254 254 257 261 264 264 262 261 261 259 257 258 260 264 264 260 257 257 259 262 262 261 264 270 275 275 269 268 273 278 282 287 298 304 304 305 308 312 318 323 314 282 296 316 325 324 325 330 329 327 332 336 337 341 342 340 340 339 337 338 337 334
217 219 219 220 223 225 227 229 230 231 233 236 239 239 238 239 241 244 249 253 254 254 257 259 258 257 260 265 267 267 268 267 261 256 256 258 262 265 265 263 262 262 263 261 260 260 263 268 270 267 266 268 272 276 281 288 293 296 297 298 302 305 307 308 299 294 308 320 324 323 326 327 324 327 332 332 336 340 340 341 343 344 347 347 340
220 221 221 222 224 226 228 230 231 234 235 238 240 238 235 235 237 240 244 248 252 254 259 262 260 258 258 262 266 268 270 270 264 257 254 256 260 265 268 267 267 268 269 269 268 263 260 265 269 270 270 269 271 275 280 283 288 294 298 298 301 306 303 300 298 295 300 310 316 318 322 322 320 323 328 329 332 336 337 342 346 350 353 352 345
223 221 219 222 225 226 228 229 231 234 236 239 240 238 235 235 238 240 243 246 249 253 258 262 262 260 260 263 265 265 266 267 265 260 257 257 260 263 267 269 270 272 274 276 276 271 269 271 272 275 278 277 276 279 282 283 286 290 294 295 299 307 309 304 303 300 298 301 307 313 317 316 317 321 325 327 330 333 336 341 346 349 353 353 349
223 218 216 219 222 224 226 229 231 233 236 239 240 238 237 238 240 243 245 247 251 254 256 260 262 263 264 266 266 264 263 263 264 263 262 261 261 262 265 268 271 273 274 276 276 275 276 276 275 276 280 283 283 285 287 287 287 290 293 294 297 303 307 307 307 305 299 298 303 310 313 313 315 318 321 323 326 329 334 338 341 344 347 347 347
223 220 220 222 223 224 224 226 228 231 235 239 241 240 239 240 242 244 246 249 252 254 255 259 264 266 266 267 267 266 266 265 263 261 261 261 262 262 264 265 268 270 272 274 273 274 276 278 279 277 278 283 286 287 291 291 291 292 294 296 299 302 304 305 306 306 302 301 303 306 309 311 312 314 318 319 318 321 328 333 335 339 342 342 342
218 221 224 226 225 223 221 220 220 221 227 235 240 243 242 242 243 245 246 248 252 255 257 260 265 269 269 269 268 268 269 268 266 263 259 259 260 262 264 265 266 267 270 273 274 274 273 274 276 276 276 280 283 287 290 291 291 291 292 295 298 301 303 305 305 304 301 301 302 303 305 308 309 310 313 315 314 316 322 327 329 333 337 337 336
206 211 216 218 220 220 219 218 218 219 222 226 233 241 245 245 244 243 243 244 247 254 258 262 266 269 270 271 271 271 271 270 269 267 263 260 260 261 263 264 265 268 270 274 276 276 275 275 275 276 276 278 281 285 288 290 292 292 293 296 298 299 303 305 306 304 302 300 300 301 302 304 306 309 312 314 314 315 320 319 317 323 329 331 331
196 196 199 206 215 221 221 221 223 225 226 227 229 232 240 248 248 243 240 240 241 246 253 258 262 264 267 270 272 273 273 272 272 271 269 266 264 264 264 264 265 268 270 274 277 277 276 275 276 277 278 281 283 285 288 291 292 292 294 297 298 299 301 303 302 301 299 297 297 299 299 300 305 309 311 314 313 313 315 312 310 317 321 322 326
202 197 199 213 222 222 218 218 220 225 228 229 229 228 232 246 252 247 241 239 240 241 246 252 257 261 265 268 271 273 273 273 273 273 273 273 270 268 268 268 268 269 271 273 276 277 276 276 277 278 279 280 282 284 288 291 292 292 294 295 296 296 296 296 297 297 295 292 292 295 293 295 303 307 306 310 313 313 314 312 310 314 316 316 321
201 200 207 225 231 227 219 216 216 222 228 229 231 235 239 251 261 256 244 239 240 240 244 250 256 261 266 270 275 276 275 275 275 275 275 276 275 272 270 270 270 270 272 274 276 279 280 280 282 282 282 282 283 285 288 290 291 291 290 290 291 292 290 289 291 292 290 286 288 290 285 287 299 305 304 308 312 312 313 312 308 308 310 309 310
140 153 155 158 179 181 170 172 179 188 198 201 204 223 239 250 262 263 255 247 243 241 243 248 253 259 264 271 279 282 281 278 274 272 272 274 276 275 272 271 270 270 271 273 277 280 282 284 286 287 288 289 289 290 292 293 295 293 291 290 288 288 287 286 286 288 288 285 285 286 285 286 293 300 303 305 308 310 310 309 306 304 303 299 295
115 121 115 111 121 130 131 136 142 147 155 158 157 158 163 180 213 239 245 243 241 237 237 239 242 251 258 266 278 291 299 294 283 276 272 271 273 274 273 271 271 271 272 274 277 281 283 285 288 290 293 295 295 296 298 299 300 300 298 296 293 292 290 288 287 287 287 285 281 282 288 289 288 296 304 305 303 304 304 305 306 304 301 298 294
97 97 98 101 104 107 111 115 116 116 121 130 135 137 134 133 138 141 145 183 219 224 226 230 229 236 250 260 271 290 310 305 299 295 286 277 273 272 272 272 271 272 273 275 277 280 283 285 287 290 294 297 298 299 300 302 303 303 303 301 300 299 298 295 294 292 289 286 281 282 290 293 291 297 305 304 300 300 301 302 304 304 301 299 298
84 85 90 95 97 97 97 97 98 99 100 104 109 110 110 111 116 132 139 162 188 173 129 104 128 161 219 239 243 247 256 268 279 291 298 292 283 277 273 270 270 271 272 273 275 277 280 283 285 290 294 297 300 302 303 304 304 303 303 303 302 303 301 299 299 298 296 293 289 290 295 298 298 300 303 305 304 304 303 301 301 302 300 300 301
80 81 84 87 88 89 87 87 87 88 90 94 96 93 92 100 111 127 181 203 212 185 149 64 55 83 207 246 245 244 246 257 269 267 267 279 295 300 291 278 273 273 273 276 279 280 283 285 286 290 293 295 299 304 307 308 305 302 302 302 302 302 299 297 298 298 298 297 296 296 298 299 300 300 303 306 304 305 305 301 301 302 299 297 298
76 75 74 75 75 76 78 81 81 82 82 83 84 84 83 87 95 99 105 72 55 77 103 353 352 339 310 297 288 275 272 291 307 295 269 271 292 314 314 302 289 282 278 279 281 283 286 289 290 291 291 293 298 304 308 307 302 300 300 300 301 299 295 294 295 296 297 297 298 298 298 299 299 299 300 301 300 302 300 296 300 302 295 290 290
70 70 67 65 63 64 68 72 74 76 76 74 77 82 83 83 83 81 85 79 63 67 70 58 40 21 7 357 338 321 316 319 312 298 287 290 298 310 315 312 305 301 298 293 287 284 284 287 293 295 295 296 298 300 302 299 295 296 298 299 299 295 292 294 297 297 297 298 298 297 296 295 295 295 297 296 297 298 294 294 300 296 284 278 279
68 69 68 64 61 58 58 62 66 69 70 71 75 79 81 81 81 82 85 81 74 74 77 78 71 51 39 38 33 14 351 337 320 302 288 283 289 298 301 305 309 311 313 309 300 293 289 287 289 292 293 295 295 296 298 296 294 296 298 298 296 294 294 298 301 300 299 298 296 295 294 293 293 293 294 295 296 296 294 296 298 289 277 276 277
72 73 72 71 68 64 62 62 65 68 70 73 76 78 79 80 79 78 77 73 74 75 77 82 85 79 64 57 57 49 24 3 360 349 315 282 283 300 308 327 336 332 328 328 322 315 310 306 303 301 299 297 297 298 299 299 298 298 298 297 296 297 299 300 298 297 296 294 293 292 291 291 291 290 291 292 294 295 296 297 295 287 278 275 276
79 79 78 77 75 72 69 68 68 70 71 73 76 76 75 75 75 74 70 67 67 70 74 79 84 88 88 79 74 69 54 44 62 57 37 352 326 5 34 34 19 1 350 348 348 348 350 350 350 343 331 322 314 308 306 305 303 301 300 300 300 300 299 296 294 293 292 290 289 289 288 288 289 289 291 292 292 295 297 297 296 292 282 275 274
80 80 79 79 76 72 69 67 66 66 65 67 71 69 67 68 69 68 67 64 63 62 65 69 75 82 86 79 72 70 63 56 65 58 41 24 16 23 25 24 22 13 5 360 359 0 357 353 353 347 335 328 324 318 314 311 308 306 306 307 307 306 301 295 292 290 288 287 288 288 288 289 291 292 293 293 294 297 298 299 298 296 290 286 282
80 79 78 76 72 68 64 61 59 59 57 58 62 62 61 61 61 60 59 57 56 54 52 52 58 63 64 58 55 57 58 59 65 60 40 29 25 22 14 9 8 9 6 354 341 338 336 337 342 340 331 324 319 315 312 310 309 308 307 307 308 308 305 300 295 291 288 289 289 289 290 292 293 294 294 295 297 300 300 299 299 297 294 292 290
79 76 74 71 65 61 58 55 53 52 51 51 54 55 54 55 56 55 53 51 50 48 44 40 40 42 39 37 35 33 37 46 55 55 43 32 25 17 11 7 3 360 356 343 333 330 329 331 335 335 333 331 325 318 313 309 307 305 303 303 305 305 303 302 301 297 293 290 288 287 289 290 291 292 295 297 300 300 300 299 298 297 295 292 291
75 71 66 62 57 51 48 46 45 45 44 44 46 48 47 49 52 52 52 51 50 47 43 38 33 29 23 17 15 14 15 21 27 29 24 18 13 8 4 3 1 358 353 345 340 337 334 332 329 325 326 329 329 328 324 319 315 312 308 307 305 303 302 302 301 298 294 291 289 288 291 294 297 298 300 301 301 300 300 300 300 300 298 295 295
74 69 64 58 52 47 44 41 40 42 43 44 46 46 45 45 48 48 48 49 47 44 42 37 30 23 17 10 4 2 4 7 8 6 2 357 354 352 349 348 346 345 341 337 334 332 331 333 332 327 323 322 324 328 329 329 328 326 323 318 312 308 308 306 302 297 295 294 294 294 297 302 304 303 303 303 301 301 302 304 304 303 302 300 298
72 67 62 56 51 48 47 43 38 36 36 36 37 37 37 37 40 41 41 39 35 31 30 27 22 15 8 4 1 358 359 1 359 356 353 350 347 343 340 338 336 334 332 329 328 329 330 334 336 334 329 325 323 324 327 330 332 333 331 327 321 318 317 312 305 299 296 296 297 299 303 306 305 304 304 303 302 304 307 307 305 303 304 302 296
66 62 56 50 46 45 45 40 34 31 29 25 23 23 22 21 25 34 39 34 25 18 15 15 15 8 360 356 354 352 356 360 358 353 351 348 344 341 339 337 336 334 332 328 326 327 329 331 333 334 331 328 326 326 328 331 334 334 333 329 325 324 323 318 310 304 302 303 303 303 306 307 305 305 306 304 304 307 309 307 302 301 303 300 291
52 50 44 41 42 40 37 33 28 25 22 18 17 17 17 15 17 26 34 34 27 17 9 8 9 3 357 356 353 349 350 353 351 347 345 344 342 340 340 339 338 337 334 330 326 325 327 329 331 333 332 330 327 327 330 332 333 333 333 330 328 330 330 325 318 313 313 313 311 309 309 309 307 307 308 306 305 308 308 304 299 299 299 295 285
34 33 29 31 35 30 22 19 19 18 16 14 13 14 16 19 21 22 24 26 29 27 19 14 12 3 355 357 358 352 347 344 340 338 338 338 338 338 338 337 336 334 332 331 329 328 329 331 331 333 332 328 324 325 327 328 329 331 332 331 332 336 337 333 327 324 323 321 317 314 313 311 309 310 310 308 307 308 308 304 299 296 294 290 286
17 18 18 23 25 15 7 7 9 9 10 11 13 13 14 15 18 19 18 17 19 24 27 27 27 19 5 357 355 351 347 344 344 343 340 337 335 334 333 334 335 333 332 333 335 336 338 338 336 336 334 327 320 319 319 320 323 329 332 330 334 339 338 336 335 335 333 330 327 323 319 315 311 310 309 307 306 307 306 304 300 295 289 286 283
3 5 9 14 11 0 355 356 358 358 359 1 5 8 9 7 5 7 10 8 8 14 21 24 27 25 16 5 357 351 350 351 351 350 347 343 339 334 330 330 332 333 333 335 338 341 343 342 340 340 337 330 323 318 314 314 318 324 325 324 330 337 338 339 342 344 343 340 338 336 333 330 326 323 320 317 314 311 309 307 303 296 288 284 281
354 358 4 357 345 338 341 345 347 349 350 352 356 1 2 359 353 350 351 355 0 8 14 20 21 16 9 4 360 355 353 353 351 349 347 344 343 341 336 333 332 331 332 335 337 339 340 339 338 338 337 332 327 320 313 311 312 312 313 317 321 329 334 336 338 338 337 337 337 337 336 336 335 333 331 329 325 322 319 316 312 305 295 286 282
304 327 348 339 323 323 331 336 339 343 346 349 352 355 355 351 345 341 341 345 350 355 2 12 14 5 357 356 357 356 353 350 347 344 341 340 342 342 340 338 337 334 333 335 336 336 336 335 334 334 334 332 329 322 314 310 306 299 296 300 301 308 322 329 331 332 333 332 332 331 330 330 331 330 327 326 324 322 320 319 316 312 305 297 289
294 301 315 322 320 324 331 335 337 341 343 345 345 344 344 342 338 335 336 339 339 341 347 357 357 350 349 352 354 351 348 344 341 338 336 337 340 340 338 338 339 337 335 335 334 332 331 329 328 330 331 330 328 321 313 309 304 292 280 275 284 302 318 325 325 326 328 328 328 327 326 326 325 324 321 318 317 315 314 314 312 310 307 304 297
307 315 322 328 332 335 335 333 335 336 338 339 337 335 334 334 332 331 333 336 335 335 338 341 341 341 346 351 351 347 344 340 336 334 333 335 336 336 334 332 332 330 329 329 328 328 327 325 325 326 327 327 325 318 308 302 300 291 275 268 285 303 312 315 315 317 320 321 321 321 322 322 321 319 317 313 310 309 308 306 307 306 305 305 303
331 341 345 344 342 338 332 328 328 332 334 335 335 335 336 334 333 334 337 339 337 334 333 334 334 338 345 349 349 345 340 335 334 335 337 337 337 334 330 326 323 320 318 318 319 319 319 319 320 321 321 322 321 315 302 292 287 281 275 278 291 301 305 307 309 312 314 314 315 317 319 319 317 317 314 310 307 306 304 303 303 303 302 303 304
339 344 347 349 346 341 336 332 331 332 333 334 337 337 335 332 333 335 337 336 332 329 329 331 334 337 341 344 343 339 335 335 336 338 339 338 337 334 327 322 318 314 311 311 312 311 309 310 312 314 316 317 316 311 300 290 284 279 278 285 293 297 299 302 306 309 311 312 313 315 315 315 315 314 311 306 303 302 302 302 301 301 301 302 300
335 338 341 344 345 344 340 336 331 329 329 333 339 339 333 328 329 330 327 327 326 325 327 333 336 337 336 335 335 336 335 335 335 333 331 329 327 324 320 317 314 310 308 309 310 308 306 305 306 308 311 312 311 307 298 287 280 277 280 288 293 295 298 301 305 308 310 310 311 311 311 312 312 311 308 304 300 299 300 301 299 298 299 299 297
326 331 335 340 345 345 342 335 328 329 333 332 332 333 329 324 322 322 323 324 324 325 329 330 328 327 328 329 333 335 333 329 327 326 323 320 318 315 313 310 308 306 304 305 306 306 305 304 304 306 308 308 306 302 293 281 274 275 282 290 294 296 299 302 304 305 306 306 306 307 308 308 308 307 304 300 297 296 297 297 297 297 296 295 295
322 332 339 343 344 345 343 336 329 331 333 327 323 325 325 323 322 323 325 326 326 324 324 322 320 322 326 330 334 334 328 323 323 323 321 319 317 314 310 307 305 303 302 301 302 303 302 302 303 305 305 304 301 297 289 281 277 280 286 290 292 294 297 299 302 304 305 304 303 302 302 303 302 300 298 296 296 296 295 293 293 294 294 293 293
345 353 347 343 344 343 340 334 327 324 321 318 320 324 324 324 326 325 323 323 323 321 321 321 322 324 326 329 332 332 327 323 323 324 324 323 320 316 313 310 307 306 304 303 301 300 299 299 300 301 301 299 297 293 288 283 282 284 287 289 290 293 294 296 299 303 304 303 300 298 297 297 295 292 292 292 292 292 292 291 291 291 292 292 291
355 345 335 334 337 336 334 331 327 323 319 316 319 322 322 322 323 323 321 321 322 322 322 323 324 324 326 329 333 332 328 325 325 326 326 326 324 321 318 314 310 310 310 309 306 305 302 299 298 299 298 297 294 289 284 283 285 286 288 289 290 291 292 293 296 299 299 298 297 294 293 292 290 289 289 288 287 287 288 288 288 289 288 289 290
323 326 328 331 334 334 334 333 327 323 320 318 316 319 322 323 324 326 326 325 324 324 323 324 325 326 328 331 333 332 329 328 327 326 325 325 325 326 327 325 321 318 316 314 312 310 307 302 299 298 296 294 289 283 281 283 285 287 289 290 290 289 289 291 294 296 296 294 292 290 289 288 288 287 286 285 285 285 285 285 285 286 286 287 287
323 329 334 338 339 337 336 339 333 322 320 321 322 328 334 334 330 328 326 324 323 323 323 324 326 327 327 329 329 328 327 326 326 325 324 325 326 328 330 330 329 326 323 320 317 313 309 305 302 298 294 289 283 280 280 283 285 286 288 289 289 289 290 291 293 294 294 291 289 287 285 284 284 284 284 283 283 283 282 283 284 284 285 285 284
328 339 344 346 346 343 340 343 336 325 326 336 338 338 340 336 329 324 321 319 318 318 318 319 321 322 322 324 325 324 323 323 322 321 321 322 323 324 326 328 329 328 325 323 321 317 312 309 306 302 299 296 293 291 289 288 288 288 289 289 289 290 292 293 294 295 293 289 285 283 282 282 282 281 280 280 280 279 279 281 282 282 282 282 282
336 348 351 351 350 344 337 333 328 329 342 349 342 333 330 327 324 322 321 319 318 318 318 320 321 321 321 322 322 322 321 320 319 318 319 319 320 322 323 325 326 327 325 323 322 320 316 312 309 306 304 303 302 300 299 297 295 294 292 291 290 290 291 292 294 293 292 288 284 280 280 280 280 279 279 279 278 277 278 279 280 280 280 281 281
347 356 358 352 344 338 333 331 337 347 352 346 333 325 324 323 322 322 323 322 321 321 321 321 322 322 322 323 323 323 322 321 319 318 318 318 320 322 322 322 322 324 324 323 323 322 319 317 314 311 309 307 304 303 301 300 299 298 296 294 292 291 291 292 291 290 290 288 285 282 280 279 278 278 277 276 276 277 278 279 279 279 280 280 280
353 360 359 349 340 332 329 338 352 357 352 339 326 320 320 319 318 321 321 320 320 320 320 321 322 323 323 324 324 323 322 321 319 318 317 318 319 321 321 320 321 322 322 322 322 322 320 318 316 313 311 309 306 304 302 300 299 298 297 296 296 295 294 292 289 288 288 289 289 287 285 282 279 278 277 276 276 276 276 276 277 278 280 280 281
353 352 353 353 342 332 335 349 355 351 342 332 324 319 318 318 318 319 319 318 318 318 319 320 321 322 322 323 323 322 322 322 322 320 319 318 319 319 319 319 319 320 321 321 321 320 319 317 315 313 312 309 306 304 302 300 300 299 298 297 296 295 294 293 291 289 289 290 290 290 289 287 284 281 279 279 278 277 275 275 276 277 277 278 279
357 360 10 360 338 332 338 344 343 338 333 329 325 321 320 319 319 318 318 318 317 318 319 319 320 322 324 325 325 326 327 327 327 326 325 324 323 321 319 319 320 321 321 321 321 321 320 319 317 315 313 311 309 306 304 302 300 300 298 297 296 295 294 294 294 293 293 293 291 290 291 290 289 287 285 284 282 281 281 280 279 277 275 275 275
Height
844 846 848 850 852 853 855 857 858 860 862 863 865 866 867 868 868 869 869 870 871 872 873 873 874 875 876 877 878 879 880 880 881 882 882 882 883 883 883 883 884 884 884 884 884 885 885 885 885 885 885 886 886 886 886 886 886 885 885 885 884 884 883 883 882 880 879 878 878 877 876 876 874 874 873 872 871 870 869 869 868 867 866 864 863
842 844 846 848 850 852 854 855 857 859 860 862 863 864 866 867 868 868 868 869 870 871 872 872 873 874 875 876 877 878 879 879 880 881 881 881 882 882 882 882 883 883 883 883 883 884 884 884 884 884 884 885 885 885 885 885 885 884 884 884 884 883 883 882 882 880 879 878 877 877 876 875 874 873 873 872 871 870 869 868 867 866 865 864 862
840 843 844 846 849 850 852 854 856 858 859 861 862 863 865 866 867 867 867 868 869 870 871 871 872 873 874 875 875 876 877 878 879 879 880 880 881 881 881 882 882 882 882 882 883 883 883 883 883 883 883 883 883 884 884 884 884 883 883 883 883 882 882 882 881 880 879 877 876 876 875 874 873 872 872 871 870 869 868 867 866 865 864 863 861
839 841 842 845 847 849 851 853 855 857 858 860 861 862 864 865 866 866 867 867 868 869 870 870 871 872 872 873 874 875 876 876 877 878 878 879 879 880 880 881 881 881 881 882 882 882 882 882 882 882 882 882 882 882 882 883 883 882 882 882 882 882 881 881 880 880 879 877 876 875 875 874 872 872 871 870 869 869 868 866 865 864 863 862 860
838 839 841 844 845 847 849 851 853 855 857 859 860 861 863 864 865 866 866 866 867 868 869 869 870 870 871 872 872 873 874 875 875 876 877 878 878 879 879 879 880 880 880 881 881 881 881 881 881 881 881 881 881 881 881 881 881 881 881 881 881 881 880 880 880 879 878 877 876 875 874 873 872 871 870 869 868 867 866 865 864 863 862 860 859
838 839 842 844 845 847 848 850 851 854 856 858 859 861 862 863 864 865 865 865 866 866 867 868 868 869 869 870 871 871 872 873 874 874 875 876 876 877 878 878 878 879 879 879 880 880 880 879 879 879 879 879 879 879 880 880 880 880 880 880 880 880 879 879 879 878 878 877 876 874 873 872 871 869 869 868 867 866 865 864 862 861 861 859 857
837 838 840 842 844 845 846 847 849 851 854 857 859 860 861 862 863 863 864 864 865 865 865 866 867 867 868 868 869 870 870 871 872 873 873 874 875 875 876 876 877 877 877 878 878 878 878 878 878 878 878 878 877 878 878 878 878 878 878 878 879 879 878 878 877 877 876 876 875 874 872 871 870 868 868 867 866 865 864 863 861 860 859 858 856
835 836 837 839 841 842 843 844 845 847 849 853 856 858 860 861 861 862 863 863 863 864 864 865 865 866 866 867 867 868 869 869 870 871 872 872 873 873 874 875 875 875 876 876 876 877 877 877 877 877 877 877 876 876 876 876 876 876 876 877 877 877 876 876 876 875 875 874 874 873 871 870 869 867 866 865 865 864 864 863 861 859 858 857 855
834 836 838 840 842 842 842 844 845 846 848 850 852 854 856 859 860 861 861 861 862 862 863 863 864 864 865 865 866 866 867 868 868 869 870 870 871 871 872 873 873 874 874 874 875 875 875 875 875 875 875 875 875 875 875 875 875 874 874 875 875 875 874 874 874 873 873 873 872 871 870 869 867 866 865 864 863 863 862 861 860 858 857 856 853
833 835 838 839 840 840 841 843 844 847 849 850 851 852 853 855 858 859 859 859 860 860 861 862 862 863 863 864 865 865 865 866 867 867 868 868 869 870 870 871 871 872 872 872 872 873 873 873 873 874 874 873 873 873 873 874 873 873 873 873 873 873 873 872 872 872 871 871 870 869 869 867 866 865 864 862 862 861 860 860 858 857 856 854 852
833 835 837 837 838 840 841 842 843 846 849 851 852 852 852 853 857 859 858 857 858 858 859 860 860 861 862 862 863 863 864 864 865 866 866 867 867 868 868 869 869 870 870 870 870 870 871 871 871 872 872 871 871 871 871 871 871 871 871 871 871 871 871 871 870 870 870 869 868 868 867 866 864 863 862 861 860 859 859 858 857 855 854 853 851
835 835 835 836 837 839 840 841 844 847 850 851 850 851 851 853 857 859 857 856 856 856 857 857 858 859 860 860 861 861 862 862 863 863 864 865 865 866 866 866 867 867 868 868 868 868 868 869 869 869 869 869 869 869 869 869 869 869 869 869 869 869 869 869 868 868 867 867 866 866 865 864 862 861 860 859 858 858 857 856 855 854 853 852 850
835 835 835 835 837 838 839 841 845 848 849 849 848 849 850 852 855 857 856 854 854 854 855 855 856 857 857 858 859 860 860 860 860 861 862 862 863 864 864 864 865 865 865 866 866 866 866 866 866 867 867 867 867 867 866 866 866 866 866 866 866 866 866 866 866 866 865 865 864 863 862 862 860 859 859 858 857 856 855 853 853 852 851 849 848
836 836 836 836 838 840 841 843 845 847 847 847 847 847 848 850 854 856 855 854 853 854 854 855 855 855 855 856 857 857 857 857 858 859 860 860 861 861 862 863 863 863 863 864 864 864 864 864 864 864 864 864 864 864 864 864 863 863 863 863 863 863 863 863 863 863 863 862 861 860 860 859 858 857 857 857 855 854 853 852 851 850 848 847 845
838 839 839 840 841 842 843 844 845 845 845 846 847 848 848 849 853 855 854 853 853 853 854 854 854 853 853 854 855 855 855 856 856 857 857 859 860 860 861 861 862 862 862 862 862 862 862 862 862 862 862 862 862 862 862 861 861 860 860 860 859 859 859 859 859 859 859 859 858 857 857 857 856 855 855 854 853 852 852 850 849 848 846 844 842
842 842 842 843 843 843 844 845 845 845 846 847 848 849 849 850 852 853 853 852 852 852 853 853 853 853 852 853 853 854 855 855 855 855 855 856 858 859 860 861 861 861 861 861 861 861 861 860 860 860 859 859 860 860 860 859 858 858 857 857 856 856 855 855 856 856 855 855 854 854 853 853 853 853 852 852 851 850 849 848 847 846 844 841 839
844 844 843 844 844 845 846 847 847 847 848 848 848 849 849 850 851 851 851 851 851 851 852 852 852 852 852 852 852 853 854 855 855 855 855 855 855 857 859 860 860 860 859 859 859 859 859 858 858 857 857 857 857 858 858 857 856 855 854 854 853 852 851 852 852 852 852 851 851 850 850 850 850 850 850 849 849 848 847 845 844 844 842 840 838
845 845 845 845 845 846 847 848 848 848 848 848 848 849 850 850 850 850 849 849 850 850 851 851 852 852 852 852 852 852 853 854 855 855 855 854 854 854 856 858 859 859 859 858 857 857 856 856 856 855 855 854 855 855 855 855 853 853 852 851 850 849 848 849 849 848 848 847 847 846 846 846 846 846 846 846 846 845 844 842 841 841 840 838 836
847 847 847 847 848 848 849 849 849 849 849 849 849 850 850 850 850 849 849 849 849 850 850 851 851 851 851 851 851 852 853 853 854 854 854 853 853 853 854 855 857 858 857 857 856 855 855 854 854 854 853 852 852 852 852 852 851 851 850 849 848 847 846 847 846 845 844 844 843 843 842 842 842 842 842 842 842 841 840 839 838 838 836 835 834
850 849 849 849 849 850 850 850 850 850 850 851 850 850 850 850 850 849 849 849 849 850 850 850 850 850 850 850 851 851 852 853 853 853 853 852 852 852 852 853 854 856 856 855 855 854 853 852 852 851 851 850 850 850 850 850 849 849 848 847 846 845 844 844 843 843 842 841 839 839 838 837 837 837 837 837 837 836 835 835 834 834 833 832 831
851 851 851 851 852 852 852 852 852 852 852 852 852 851 851 850 850 849 848 848 848 849 850 850 850 849 849 849 850 851 851 852 852 852 852 853 853 853 852 852 853 854 855 855 854 853 852 851 850 849 849 849 848 848 848 848 847 846 846 845 844 843 842 841 840 840 839 837 836 835 834 833 833 832 832 832 832 832 831 831 830 830 830 829 828
853 853 853 853 854 854 854 854 854 854 854 853 853 852 852 851 850 850 849 849 848 849 849 849 849 849 848 849 850 851 852 853 853 853 853 855 855 853 853 852 853 853 854 854 854 853 852 851 849 848 848 847 847 846 846 846 845 844 844 843 842 841 840 838 837 836 835 834 833 832 831 830 830 829 829 828 828 828 828 827 826 826 825 825 825
853 854 854 855 855 855 856 856 855 855 855 855 854 854 853 853 852 851 851 850 850 850 850 850 850 849 849 850 851 852 854 855 856 855 855 855 855 854 853 853 853 853 853 853 853 852 851 849 847 846 846 845 845 844 844 844 843 842 842 841 839 838 837 836 834 833 832 831 831 829 829 828 827 826 825 825 824 824 824 823 822 822 821 820 820
854 855 855 856 856 856 856 856 856 856 856 855 855 855 854 854 853 853 853 852 851 851 851 851 851 851 851 851 852 853 854 855 856 856 856 856 856 856 855 855 854 853 852 852 851 850 849 847 845 844 844 843 843 842 842 842 841 840 839 838 837 836 834 833 832 831 830 829 828 826 825 825 824 823 822 821 821 820 819 818 818 818 817 816 816
855 855 855 856 856 856 856 856 856 856 856 855 855 855 855 855 854 854 854 854 853 854 853 853 853 853 853 853 853 853 854 854 855 855 855 856 856 855 855 854 852 851 850 849 849 848 846 845 843 842 841 841 840 840 840 839 839 838 837 835 834 833 832 831 830 829 827 826 825 823 822 822 822 821 819 818 817 815 815 814 814 814 814 813 812
856 856 857 857 857 857 856 856 856 856 856 856 856 856 855 855 855 855 855 854 855 855 855 855 855 855 855 854 854 854 854 853 854 853 853 853 852 852 851 850 849 849 848 847 846 845 844 843 841 840 839 838 838 838 838 837 837 836 834 833 831 830 830 829 828 826 825 824 823 821 820 819 819 818 817 815 814 812 812 812 811 810 810 810 808
857 857 858 858 858 857 857 857 857 856 856 856 856 856 856 855 855 855 854 854 854 855 855 856 856 856 855 855 854 854 854 853 852 851 851 850 849 849 848 847 846 845 844 844 843 842 841 840 839 838 837 836 836 836 836 836 835 833 832 830 829 828 827 827 826 825 824 822 821 819 818 817 816 815 814 813 811 810 811 810 808 807 807 807 805
857 857 858 858 858 858 858 857 857 857 856 856 856 855 855 855 855 854 854 854 854 854 854 855 855 855 855 855 854 853 853 852 851 850 849 848 847 846 845 844 843 843 842 840 839 839 838 837 837 836 835 835 835 834 834 834 833 831 830 828 827 826 825 824 824 823 822 821 819 817 816 815 814 812 812 810 809 809 809 808 807 805 804 804 802
856 857 857 857 858 858 858 858 857 857 857 856 856 856 855 855 854 854 854 854 854 854 854 854 854 855 855 854 854 853 852 851 851 850 849 848 846 845 844 842 842 841 840 838 837 836 835 834 834 834 834 833 833 832 832 831 830 829 828 826 825 824 823 822 822 821 820 819 818 816 815 813 811 810 809 808 807 807 806 806 805 803 802 801 800
855 856 856 857 857 857 857 857 857 857 857 856 856 855 855 854 854 854 854 854 854 854 853 854 854 854 853 853 853 852 852 851 850 849 848 847 846 845 843 842 841 839 838 836 834 833 832 832 831 831 831 830 830 829 829 828 827 826 825 824 823 822 821 821 820 819 818 817 816 815 813 811 810 809 808 807 805 804 804 803 802 801 800 798 797
855 856 856 856 856 856 856 856 856 856 856 855 855 854 854 854 854 853 853 853 853 853 853 853 853 853 852 852 852 851 851 850 849 848 847 846 845 843 842 841 840 838 836 835 833 832 831 830 829 829 829 828 827 827 826 826 825 824 824 823 822 821 820 819 819 818 817 816 815 813 812 810 809 807 806 805 803 802 801 800 799 799 797 796 794
856 856 856 856 856 855 855 855 854 854 854 853 853 853 852 852 852 852 852 852 852 852 852 852 851 851 851 851 850 849 849 848 848 847 846 844 843 842 840 839 838 836 835 834 832 831 830 829 828 828 827 826 826 825 824 824 823 823 822 822 821 820 819 818 817 816 816 815 813 812 811 810 808 806 805 804 802 800 799 798 797 796 795 793 792
856 856 856 856 855 855 855 854 854 853 852 852 851 851 850 850 850 850 850 850 850 850 850 850 850 849 849 849 848 848 847 846 846 845 844 843 842 840 839 838 837 835 834 833 832 831 830 829 828 827 826 825 824 823 822 822 821 821 821 820 819 818 818 817 816 815 814 813 812 812 810 809 808 806 804 803 801 800 798 797 795 794 792 790 789
855 855 855 855 854 854 854 853 853 852 852 851 850 849 849 848 848 848 847 847 848 848 848 848 848 848 847 847 846 846 845 845 844 843 842 841 840 838 837 836 835 834 833 832 831 830 829 828 827 826 825 824 823 822 821 820 820 820 819 819 818 817 816 815 814 813 812 811 811 810 809 808 807 805 803 801 800 799 797 796 794 793 791 789 786
854 853 853 853 853 853 853 853 852 852 851 850 850 849 849 848 848 847 846 846 846 846 846 846 846 846 845 845 844 844 843 842 841 840 839 838 838 837 835 834 833 832 831 831 830 829 828 828 826 825 824 823 822 821 820 819 818 818 817 817 816 815 814 814 813 812 811 810 809 808 807 806 805 803 802 800 798 797 796 794 792 791 789 787 784
852 852 852 852 852 852 851 851 851 850 850 849 849 849 848 847 847 847 846 846 845 844 844 844 843 843 842 842 842 841 840 840 839 838 837 836 835 834 834 833 832 831 830 829 828 828 827 826 825 824 823 822 821 820 819 818 817 816 815 815 814 814 813 812 811 811 810 809 807 806 805 803 802 801 800 797 796 795 793 792 790 788 787 785 783
851 850 850 850 850 850 850 850 849 849 849 848 847 847 846 846 846 845 845 845 844 844 843 842 841 841 840 840 839 839 838 837 836 834 834 833 832 832 831 831 830 829 828 827 827 826 825 824 823 823 822 820 819 818 817 816 816 815 814 813 812 812 811 811 810 809 808 807 806 805 803 802 800 799 797 795 792 791 790 789 787 785 783 782 781
849 849 849 849 849 848 848 848 847 847 847 846 846 845 845 845 844 844 844 844 843 843 842 841 840 840 839 838 838 837 836 834 833 832 831 830 829 829 828 828 828 827 826 825 825 824 823 822 822 821 820 819 817 816 815 814 813 813 812 811 810 810 809 808 808 807 806 804 803 802 801 800 798 796 795 793 790 788 787 786 784 782 780 778 777
848 848 848 847 847 847 847 846 846 846 845 845 844 844 844 844 843 843 843 842 842 841 841 840 839 839 838 838 837 836 834 833 832 831 830 829 828 828 827 826 825 825 824 823 822 821 821 820 819 819 818 816 815 814 813 812 811 810 810 809 808 807 807 806 805 804 803 802 800 799 798 797 795 794 792 790 788 786 785 783 782 780 778 775 774
847 847 847 846 846 846 846 845 845 845 844 844 843 843 842 842 842 841 841 841 840 840 839 839 839 838 838 837 836 834 833 832 831 830 829 828 827 827 826 825 824 823 822 821 820 819 818 817 817 816 815 814 813 812 810 810 809 808 807 807 806 805 804 803 802 801 800 799 797 796 794 793 792 790 789 787 785 784 782 780 778 777 775 773 771
846 846 846 845 845 845 845 845 845 844 844 843 843 842 841 841 840 840 840 839 839 838 838 838 837 836 836 835 834 834 833 831 830 829 828 827 826 825 824 823 822 821 820 819 818 817 816 815 814 813 812 811 810 809 808 807 806 805 805 804 803 802 801 800 799 798 797 795 794 792 791 789 788 786 785 783 782 780 779 777 775 773 771 770 768
845 845 845 845 844 844 844 844 843 843 843 842 842 841 840 840 839 839 838 838 837 837 836 836 835 834 834 833 833 832 831 830 829 828 827 826 825 824 822 821 820 819 818 817 816 815 814 812 811 810 809 808 807 806 805 804 803 803 802 801 800 799 798 797 796 795 793 792 790 789 787 785 784 783 781 780 778 776 775 773 772 770 767 765 764
844 844 844 844 843 843 842 842 842 841 841 841 840 840 839 839 838 838 837 836 836 835 834 834 833 832 832 831 831 830 829 828 827 826 825 824 823 822 821 819 818 817 815 814 813 812 811 810 808 807 806 805 804 803 802 801 800 800 799 798 797 796 794 793 792 791 790 788 787 785 784 782 780 779 777 776 774 773 771 769 768 766 764 762 760
843 843 843 842 841 841 841 840 840 840 839 839 839 839 838 837 837 836 835 835 834 834 833 832 832 831 830 829 829 828 827 826 825 824 823 822 821 819 818 817 815 814 813 811 810 809 808 806 805 803 802 801 801 800 799 799 798 797 796 795 793 792 791 790 789 787 786 785 783 781 780 778 776 775 773 772 771 769 767 765 764 762 759 758 756
842 842 841 840 840 839 839 838 838 838 838 838 838 837 837 836 836 835 835 834 833 832 832 831 830 830 829 828 827 826 825 824 823 822 821 819 818 817 816 814 813 811 810 809 807 806 804 802 801 799 798 798 798 797 796 796 795 794 793 792 790 789 788 787 785 784 783 781 779 778 776 775 773 771 769 768 767 765 763 761 760 758 755 754 752
841 841 840 839 839 838 838 838 838 837 837 837 837 836 836 835 835 834 834 833 832 831 830 829 829 828 827 827 826 824 823 822 821 819 818 817 816 814 813 812 810 808 807 806 804 803 801 800 798 797 796 795 794 793 793 792 791 791 790 788 787 786 784 783 782 780 779 778 776 775 773 771 769 767 766 764 763 762 759 757 756 754 752 750 748
840 840 839 838 838 837 837 837 837 837 836 836 836 836 835 834 834 833 832 831 831 830 829 828 827 827 826 825 823 822 821 819 818 817 815 814 813 812 810 809 807 806 804 803 801 800 799 797 796 795 793 792 791 790 789 788 787 786 785 784 783 782 781 780 778 776 775 774 773 771 769 767 765 763 761 760 759 757 755 753 752 750 748 746 744
839 839 838 838 837 837 837 837 836 836 836 836 836 835 835 834 833 832 831 830 829 828 827 827 826 824 823 822 821 819 818 817 815 814 813 812 810 809 808 806 805 803 801 800 799 797 796 795 793 792 791 789 788 786 785 784 783 782 781 780 779 777 776 775 774 772 771 770 769 767 766 764 761 759 757 755 754 752 750 749 747 746 744 742 739
838 837 837 837 837 837 836 836 836 836 836 836 835 835 834 833 833 832 831 830 829 828 827 825 824 823 822 820 819 818 817 815 814 812 811 809 808 806 805 804 802 801 799 798 796 795 793 792 791 789 788 786 785 783 782 780 779 778 776 775 773 772 771 771 769 768 767 766 764 763 761 759 756 754 752 750 748 747 746 744 743 741 739 737 734
836 836 836 836 836 836 836 836 836 835 835 835 835 834 833 833 832 831 830 829 828 827 826 825 823 822 821 819 818 817 815 814 812 811 809 807 806 804 803 802 800 799 797 795 794 792 791 789 788 786 785 783 782 780 779 777 776 774 772 770 769 768 766 765 764 763 763 761 759 757 756 754 752 750 747 745 743 742 740 739 738 737 735 732 729
835 835 835 835 835 835 835 835 835 835 834 834 833 833 833 832 831 830 829 828 827 826 825 824 823 822 820 818 817 815 814 812 811 809 807 805 804 802 801 800 798 797 795 794 792 790 788 786 785 783 782 780 779 777 775 774 772 770 768 766 765 763 762 761 759 758 758 757 755 753 751 749 747 744 742 740 738 736 734 733 732 731 729 727 724